www.pogodaiklimat.ru

Погода и климат >> Архив погоды >> Антарктида >> Syowa


ПОГОДА в Syowa

  • Прогноз погоды в Syowa
  • Монитор погоды в Syowa
  • Климат города

АРХИВ ПОГОДЫ в Syowa

Время (UTC), дата Ветер
(напр.,м/с)
 
Видим.   Явления Облачность Т
(С)
Тd
(С)
f
(%)
Тe
(С)
Тes
(С)
Комфортность P
(гПа)
Po
(гПа)
Тmin
(С)
Tmax
(С)
R
(мм)
R24
(мм)
S
(см)
03 16.07 ЮВ 5 20 км 1/1
[Sc]
-25.2 -28.9 71 -36 -36 опасность
обморожения
983.0 980.1
06 16.07 ЮВ 3 20 км 1/1
[Sc Ci fib]
-23.4 -28.0 66 -32 -32 опасность
обморожения
983.6 980.7
09 16.07 Ю 1 20 км 1/1
[Sc Ci fib]
-23.9 -29.8 58 -27 -27 984.8 981.9
12 16.07 В 5 20 км 3/1
[Sc Ci fib]
-19.8 -26.4 56 -29 -29 985.5 982.6 -27.9 -19.8
15 16.07 В 4 20 км 3/1
[Sc Ci fib]
-20.9 -26.8 59 -30 -30 988.3 985.4
18 16.07 В 4 20 км 1/0
[Ac trans Ci sp]
-19.7 -26.0 57 -29 -29 990.7 987.8
21 16.07 СВ 2 20 км 1/0
[Ac trans Ci sp]
-20.1 -26.8 55 -26 -26 992.8 989.9
00 17.07 ЮВ 3 20 км 1/0
[Ci fib]
-21.9 -29.1 52 -29 -29 993.9 991.0 -22.7 -19.6
03 17.07 В 3 20 км 1/0
[Ci fib]
-22.8 -29.7 53 -30 -30 995.0 992.1
06 17.07 ЮВ 3 20 км 1/0
[Ci sp]
-25.0 -31.6 54 -33 -33 опасность
обморожения
995.6 992.6
09 17.07 ЮВ 1 20 км 9/1
[Sc Ac trans Ci sp]
-26.2 -32.7 54 -30 -30 995.4 992.4
12 17.07 В 1 20 км 9/1
[Sc Ac trans Ci sp]
-23.2 -30.3 52 -24 -24 992.8 989.9 -28.9 -20.5
15 17.07 ЮЗ 2 20 км 9/1
[Sc Ac As Ci sp]
-22.4 -28.4 58 -29 -29 988.3 985.4
18 17.07 СВ 4 20 км 10/10
[Sc]
-20.0 -25.0 64 -29 -29 983.7 980.8
21 17.07 СВ 12 1500 м слабый снег 10/10
[Sc]
-19.2 -21.9 79 -33 -33 опасность
обморожения
977.5 974.6
00 18.07 С 16 10 км в посл. час снег 10/10
[Sc]
-17.0 -20.2 76 -23 -23 974.9 972.1 -24.4 -16.9
03 18.07 СВ 17 500 м слабый снег 10/10
[Sc]
-13.4 -15.8 82 -28 -28 969.8 967.0
06 18.07 СВ 19 500 м снег 10/10
[Sc]
-13.4 -15.2 86 -28 -28 967.6 964.8
09 18.07 СВ 20 <100 м сильный снег {метель} ?/? -13.3 -14.8 88 -28 -28 964.4 961.7
12 18.07 СВ 18 100 м сильный снег {метель} ?/? -12.9 -14.5 88 -27 -27 965.7 963.0 -17.0 -12.9
15 18.07 СВ 19 200 м снег {метель} ?/? -12.9 -14.5 88 -27 -27 967.6 964.8
18 18.07 СВ 23 100 м сильный снег {метель} ?/? -12.7 -14.3 88 -28 -28 968.9 966.1
21 18.07 СВ 25 100 м сильный снег {метель} ?/? -13.0 -14.5 88 -29 -29 971.4 968.6
00 19.07 СВ 23 100 м сильный снег {метель} ?/? -13.2 -14.9 87 -29 -29 974.4 971.6 -13.2 -12.6
03 19.07 СВ 19 100 м сильный снег {метель} ?/? -13.2 -14.7 88 -28 -28 978.5 975.7
06 19.07 СВ 16 100 м сильный снег {метель} ?/? -13.2 -14.7 88 -27 -27 981.5 978.7
09 19.07 СВ 14 400 м сильная метель {снег} 9/0
[Ac As]
-13.8 -15.5 87 -27 -27 984.0 981.2
12 19.07 СВ 11 1500 м метель {снег} 9/3
[Sc Ac As Ci sp]
-14.6 -16.4 86 -27 -27 986.4 983.6 -14.6 -13.1
15 19.07 СВ 9 4000 м метель 9/4
[Sc Ac As]
-15.1 -17.0 85 -27 -27 988.1 985.3
18 19.07 Ю 5 3000 м слабый снег 9/9
[Sc]
-16.5 -18.7 83 -26 -26 990.4 987.5
21 19.07 Ю 4 10 км в посл. час снег 10/10
[Sc]
-17.6 -19.8 83 -26 -26 991.2 988.3
00 20.07 Ю 3 10 км слабый снег 10/10
[Sc]
-18.0 -20.3 82 -25 -25 992.3 989.4 -18.3 -14.5
03 20.07 Ю 5 20 км в посл. час снег 4/4
[Sc]
-19.5 -22.1 80 -30 -30 992.7 989.8
06 20.07 Ю 6 30 км {снег} 1/1
[Sc Ci sp]
-23.3 -25.9 79 -35 -35 опасность
обморожения
993.0 990.1
09 20.07 Ю 5 30 км 1/0
[Ac As Ci sp]
-25.3 -28.4 75 -37 -37 опасность
обморожения
993.7 990.7
12 20.07 Ю 5 30 км 1/0
[Ac As Ci sp]
-25.8 -28.6 77 -37 -37 опасность
обморожения
993.5 990.5 -25.8 -17.7
15 20.07 Ю 4 30 км 1/0
[Ac As Ci sp]
-25.3 -28.3 76 -35 -35 опасность
обморожения
992.7 989.7
18 20.07 Ю 6 30 км 1/0
[Ac As Ci sp]
-25.2 -28.1 77 -38 -38 опасность
обморожения
990.8 987.8
21 20.07 Ю 7 30 км 1/0
[Ac As]
-25.7 -29.0 74 -39 -39 опасность
обморожения
988.1 985.1
00 21.07 Ю 6 30 км 1/0
[Ac As]
-25.9 -29.2 74 -39 -39 опасность
обморожения
986.4 983.4 -26.7 -24.1
03 21.07 Ю 7 30 км 1/0
[Ac As]
-26.6 -29.8 74 -40 -40 опасность
обморожения
985.0 982.0
06 21.07 Ю 6 30 км 1/0
[Ac As Ci sp]
-26.5 -29.9 73 -39 -39 опасность
обморожения
984.2 981.2
09 21.07 СВ 1 30 км 1/0
[Ac As]
-27.5 -30.9 73 -29 -29 985.4 982.4
12 21.07 Ю 1 30 км 3/0
[Ac As Ci sp]
-27.8 -31.2 73 -29 -29 986.0 983.0 -28.6 -25.5
15 21.07 С 1 30 км 9/0
[Ac As]
-27.2 -30.3 75 -31 -31 опасность
обморожения
987.7 984.7
18 21.07 Ю 2 20 км слабый снег 9/1
[Sc Ac As]
-24.4 -28.0 72 -30 -30 988.5 985.6
21 21.07 ЮЗ 3 20 км в посл. час снег 9/1
[Sc Ac As]
-22.2 -26.0 71 -30 -30 989.7 986.8
00 22.07 Ю 4 30 км {снег} 4/1
[Sc Ac As]
-24.5 -28.4 70 -35 -35 опасность
обморожения
990.8 987.8 -28.7 -21.6
03 22.07 Ю 4 30 км 1/1
[Sc]
-25.1 -29.4 67 -35 -35 опасность
обморожения
990.9 987.9
06 22.07 Ю 4 30 км 8/3
[Sc Ac As]
-24.1 -28.3 68 -34 -34 опасность
обморожения
990.7 987.8
09 22.07 Ю 5 10 км слабый снег 10/10
[Sc]
-24.2 -27.4 75 -35 -35 опасность
обморожения
990.8 987.9
12 22.07 Ю 6 10 км слабый снег 9/6
[Sc Ac As]
-23.7 -26.9 75 -36 -36 опасность
обморожения
990.8 987.9 -26.7 -23.4
15 22.07 Ю 4 10 км слабый снег 9/6
[Sc Ac As]
-22.8 -25.6 78 -32 -32 опасность
обморожения
990.4 987.5
18 22.07 Ю 4 20 км в посл. час снег 9/3
[Sc Ac As]
-20.8 -23.5 79 -29 -29 989.9 987.0
21 22.07 Ю 6 20 км 9/1
[Sc Ac As]
-21.0 -23.8 78 -32 -32 опасность
обморожения
988.9 986.0
00 23.07 В 2 20 км 9/3
[Sc Ac As]
-20.9 -24.0 76 -27 -27 988.7 985.8 -24.0 -18.4

 

Местоположение метеостанции Syowa (Антарктида): широта -69.00 долгота 39.58 высота над уровнем моря 21 м.

В архиве по умолчанию представлена погода в Syowa за последнюю неделю. Архивные данные за месяц целиком и за предыдущие месяцы, начиная с января 2011 года, Вы можете получить, выбрав интересующий диапазон дат из раскрывающегося списка и нажав кнопку "Ввод!".


*Определитесь, кто Вы:
робот инопланетянин человек

Внимание! Время в таблицах - всемирное. Для получения местного времени необходимо прибавить поправку, которая в Syowa равна 0 ч.

Смотрите также архив погоды в соседних городах и на ближайших метеорологических станциях:

Погода в Molodezhnaya (Антарктида) (297 км)
Погода в Relay Station (Антарктида) (570 км)

Пояснения к столбцам:

Ветер - указаны скорость ветра в м/с - средняя за 10 мин, порывы в срок и между сроками (в фигурных скобках) и направление, откуда дует ветер: С - северный, СВ - северо-восточный, В - восточный, ЮВ - юго-восточный, Ю - южный, ЮЗ - юго-западный, З - западный, СЗ - северо-западный.
Видимость - горизонтальная дальность видимости в метрах или километрах. При видимости от 1 до 10 км при отсутствии осадков обычно наблюдается дымка, при ухудшении видимости до 1 км и менее - туман. В сухую погоду видимость может ухудшаться дымом, пылью или мглою.
Явления - указаны атмосферные явления, наблюдавшиеся в срок или в последний час перед сроком; фигурными скобками обозначены явления, наблюдавшиеся между сроками (за 1-3 часа до срока); квадратными скобками обозначены град или гололедные отложения с указанием их диаметра в мм.
Облачность - указаны через наклонную черту общая и нижняя облачность в баллах и высота нижней границы облаков в метрах; квадратными скобками обозначены формы облаков: Ci - перистые, Cs - перисто-слоистые, Cc - перисто-кучевые, Ac - высококучевые, As - высокослоистые, Sc - слоисто-кучевые, Ns - слоисто-дождевые, Cu - кучевые, Cb - кучево-дождевые. Подробнее классификацию облаков см. в Атласе облаков (PDF).
T - Температура воздуха - температура, измеренная на высоте 2 м над землей.
Td - Температура точки росы - температура, при понижении до которой содержащийся в воздухе водяной пар достигнет насыщения.
f - Относительная влажность воздуха - влажноcть воздуха, измеренная на высоте 2 м над землей.
Te - Эффективная температура - температура, которую ощущает одетый по сезону человек в тени. Характеристика душности погоды. При расчете учитывается влияние влажности воздуха и скорости ветра на теплоощущения человека.
Tes - Эффективная температура на солнце - температура, которую ощущает человек, с поправкой на солнечный нагрев. Характеристика знойности погоды. Зависит от высоты солнца над горизонтом, облачности и скорости ветра. Ночью, в пасмурную погоду, а также при ветре 12 м/с и более поправка равна нулю.
P - Атмосферное давление - приведенное к уровню моря атмосферное давление.
Po - Атмосферное давление - измеренное на уровне метеостанции атмосферное давление.
Tmin - Минимальная температура - минимум температуры воздуха на высоте 2 м над землей.
Tmax - Максимальная температура - максимум температуры воздуха на высоте 2 м над землей.
R - Количество осадков - Количество выпавших осадков за период времени, мм. При наведении курсора мыши на число - период времени, за который выпало указанное количество осадков.
R24 - Количество осадков - Количество выпавших осадков за 24 часа, мм.
S - Снежный покров - Высота снежного покрова, см. При наведении курсора мыши на число - состояние снежного покрова и степень покрытия местности в баллах.